{"data":{"norad_id":69902,"intl_designator":"2026-156AK","name":"CUBY-1","alt_names":[],"object_type":"PAYLOAD","status":"ACTIVE","operator":null,"country":"GER","launch_date":"2026-07-07","launch_site_code":"AFWTR","launch_vehicle":null,"mission":null,"orbit_class":"UNKNOWN","rcs_meters":null,"size_class":null,"mass_kg":null,"dimensions":null,"purposes":[],"wikipedia_slug":null,"has_3d_model":false,"image_url":null,"decayed_at":null,"tle_current":{"epoch":"2026-09-20T03:59:29.857056Z","epoch_age_seconds":46585,"freshness":"FRESH","line1":"1 69902U 26156AK  26263.16631779  .00000452  00000+0  51064-4 0  9995","line2":"2 69902  97.7404 162.2462 0002680 227.7593 132.3398 14.91167909 11157","mean_motion":14.91167909,"eccentricity":0.000268,"inclination_deg":97.7404,"raan_deg":162.2462,"arg_perigee_deg":227.7593,"mean_anomaly_deg":132.3398,"bstar":5.1064e-5,"rev_number":1115,"period_min":96.56860178581,"perigee_km":592.42405639047,"apogee_km":596.16127869227,"semimajor_km":6972.4296675414,"source":"CELESTRAK","updated_at":"2026-09-20T09:00:25.171987Z"}}}